EZY32CB EDDB-EGMC

Flight info

Callsign EZY32CB
Flight time 1h 36m
Altitude 38000
Route SUKI3N SUKIP Y206 BUREL P203 HLZ L980 SAS DCT GALSO Q63 SUMUM
Aircraft A20N/M-SDE2E3FGHIJ1RWXYZ/LB1

Departure

Time 2026-04-16 21:56
Airport Berlin Brandenburg Airport (EDDB)

Arrival

Time 2026-04-16 23:32
Airport London Southend Airport (EGMC)
Time Latitude Longitude Altitude Speed Heading
2026-04-16 21:37 52.36495 13.50543 166 ft 0 kts 69°
2026-04-16 21:46 52.36491 13.50529 166 ft 2 kts 69°
2026-04-16 21:46 52.36486 13.50506 166 ft 2 kts 69°
2026-04-16 21:46 52.36480 13.50483 166 ft 2 kts 69°
2026-04-16 21:46 52.36475 13.50460 166 ft 2 kts 69°
2026-04-16 21:47 52.36470 13.50437 166 ft 2 kts 85°
2026-04-16 21:47 52.36471 13.50412 166 ft 2 kts 106°
2026-04-16 21:47 52.36478 13.50389 166 ft 2 kts 128°
2026-04-16 21:47 52.36485 13.50376 166 ft 2 kts 143°
2026-04-16 21:48 52.36497 13.50365 166 ft 1 kts 163°
2026-04-16 21:48 52.36500 13.50363 166 ft 0 kts 160°
2026-04-16 21:51 52.36461 13.50388 166 ft 17 kts 159°
2026-04-16 21:51 52.36327 13.50474 166 ft 20 kts 159°
2026-04-16 21:51 52.36193 13.50558 166 ft 20 kts 159°
2026-04-16 21:52 52.36060 13.50642 166 ft 20 kts 159°
2026-04-16 21:52 52.35929 13.50725 166 ft 19 kts 159°
2026-04-16 21:52 52.35799 13.50806 166 ft 19 kts 159°
2026-04-16 21:52 52.35760 13.50965 166 ft 17 kts 67°
2026-04-16 21:53 52.35802 13.51150 166 ft 17 kts 69°
2026-04-16 21:53 52.35850 13.51351 166 ft 20 kts 69°
2026-04-16 21:53 52.35905 13.51583 166 ft 24 kts 70°
2026-04-16 21:53 52.35966 13.51841 166 ft 23 kts 69°
2026-04-16 21:54 52.36023 13.52089 166 ft 22 kts 82°
2026-04-16 21:54 52.35974 13.52187 166 ft 0 kts 159°
2026-04-16 21:54 52.35942 13.52211 166 ft 16 kts 155°
2026-04-16 21:54 52.35826 13.52202 166 ft 18 kts 234°
2026-04-16 21:55 52.35774 13.52022 166 ft 17 kts 249°
2026-04-16 21:55 52.35661 13.51545 166 ft 82 kts 249°
2026-04-16 21:55 52.35366 13.50294 166 ft 147 kts 249°
2026-04-16 21:55 52.34964 13.48606 567 ft 163 kts 250°
2026-04-16 21:56 52.34562 13.46941 1359 ft 156 kts 249°
2026-04-16 21:56 52.33963 13.45465 1979 ft 161 kts 231°
2026-04-16 21:56 52.33165 13.44087 2437 ft 175 kts 231°
2026-04-16 21:56 52.32344 13.42572 3061 ft 186 kts 232°
2026-04-16 21:57 52.31481 13.40942 3839 ft 198 kts 233°
2026-04-16 21:57 52.30596 13.39206 4757 ft 205 kts 234°
2026-04-16 21:57 52.29691 13.37359 5679 ft 216 kts 235°
2026-04-16 21:57 52.28751 13.35426 6595 ft 223 kts 234°
2026-04-16 21:58 52.27756 13.33483 7391 ft 229 kts 232°
2026-04-16 21:58 52.26707 13.31495 8250 ft 232 kts 232°
2026-04-16 21:58 52.25654 13.29523 9143 ft 234 kts 232°
2026-04-16 21:58 52.24661 13.27437 9988 ft 235 kts 240°
2026-04-16 21:59 52.23873 13.25116 10833 ft 235 kts 249°
2026-04-16 21:59 52.23242 13.22687 11643 ft 236 kts 251°
2026-04-16 21:59 52.22831 13.21037 12177 ft 238 kts 251°
2026-04-16 21:59 52.22004 13.17707 13216 ft 241 kts 251°
2026-04-16 22:00 52.21373 13.15182 13970 ft 244 kts 251°
2026-04-16 22:00 52.20728 13.12614 14711 ft 247 kts 251°
2026-04-16 22:00 52.20076 13.10033 15437 ft 250 kts 252°
2026-04-16 22:00 52.19637 13.08299 15927 ft 251 kts 252°
2026-04-16 22:01 52.19125 13.04688 16840 ft 246 kts 280°
2026-04-16 22:01 52.19454 13.01964 17574 ft 246 kts 286°
2026-04-16 22:01 52.19843 12.99265 18273 ft 248 kts 286°
2026-04-16 22:01 52.20213 12.96556 18968 ft 250 kts 285°
2026-04-16 22:02 52.20570 12.93799 19654 ft 252 kts 285°
2026-04-16 22:02 52.20913 12.91015 20340 ft 253 kts 285°
2026-04-16 22:02 52.21250 12.88209 21031 ft 254 kts 285°
2026-04-16 22:02 52.21582 12.85397 21668 ft 257 kts 285°
2026-04-16 22:03 52.21910 12.82562 22296 ft 259 kts 285°
2026-04-16 22:03 52.22243 12.79663 22912 ft 261 kts 285°
2026-04-16 22:03 52.22572 12.76782 23500 ft 264 kts 285°
2026-04-16 22:03 52.22911 12.73800 24084 ft 267 kts 285°
2026-04-16 22:04 52.23244 12.70848 24645 ft 270 kts 285°
2026-04-16 22:04 52.23586 12.67826 25201 ft 272 kts 285°
2026-04-16 22:04 52.23925 12.64819 25734 ft 275 kts 285°
2026-04-16 22:04 52.24153 12.62784 26088 ft 277 kts 285°
2026-04-16 22:05 52.24616 12.58637 26772 ft 281 kts 285°
2026-04-16 22:05 52.24965 12.55504 27268 ft 283 kts 285°
2026-04-16 22:05 52.25317 12.52343 27761 ft 286 kts 285°
2026-04-16 22:05 52.25670 12.49176 28255 ft 288 kts 285°
2026-04-16 22:06 52.26062 12.45966 28729 ft 289 kts 288°
2026-04-16 22:06 52.26969 12.39557 29652 ft 294 kts 288°
2026-04-16 22:06 52.27429 12.36321 30098 ft 296 kts 288°
2026-04-16 22:07 52.27890 12.33052 30531 ft 298 kts 288°
2026-04-16 22:07 52.28363 12.29682 30963 ft 300 kts 287°
2026-04-16 22:07 52.28831 12.26350 31336 ft 303 kts 287°
2026-04-16 22:07 52.29303 12.22982 31678 ft 305 kts 287°
2026-04-16 22:08 52.29774 12.19597 32001 ft 308 kts 287°
2026-04-16 22:08 52.30253 12.16162 32313 ft 311 kts 287°
2026-04-16 22:08 52.30734 12.12692 32617 ft 314 kts 287°
2026-04-16 22:08 52.31210 12.09246 32928 ft 316 kts 287°
2026-04-16 22:09 52.31692 12.05753 33228 ft 319 kts 287°
2026-04-16 22:09 52.32180 12.02197 33513 ft 321 kts 287°
2026-04-16 22:09 52.32669 11.98626 33785 ft 324 kts 287°
2026-04-16 22:09 52.33162 11.95030 34045 ft 326 kts 287°
2026-04-16 22:10 52.33651 11.91455 34287 ft 329 kts 286°
2026-04-16 22:10 52.34082 11.87758 34512 ft 332 kts 283°
2026-04-16 22:10 52.34390 11.83983 34756 ft 336 kts 281°
2026-04-16 22:10 52.34570 11.80197 34972 ft 339 kts 278°
2026-04-16 22:11 52.34664 11.76345 35187 ft 342 kts 277°
2026-04-16 22:11 52.34750 11.72431 35404 ft 344 kts 277°
2026-04-16 22:11 52.34833 11.68507 35629 ft 346 kts 277°
2026-04-16 22:11 52.34916 11.64619 35832 ft 348 kts 277°
2026-04-16 22:12 52.35077 11.56676 35903 ft 351 kts 277°
2026-04-16 22:12 52.35156 11.52686 36070 ft 352 kts 277°
2026-04-16 22:12 52.35234 11.48705 36268 ft 354 kts 276°
2026-04-16 22:13 52.35310 11.44703 36461 ft 356 kts 277°
2026-04-16 22:13 52.35386 11.40607 36647 ft 359 kts 276°
2026-04-16 22:13 52.35461 11.36572 36818 ft 360 kts 276°
2026-04-16 22:13 52.35531 11.32709 36985 ft 363 kts 276°
2026-04-16 22:14 52.35603 11.28596 37156 ft 365 kts 275°
2026-04-16 22:14 52.35670 11.24689 37311 ft 367 kts 275°
2026-04-16 22:14 52.35742 11.20507 37472 ft 369 kts 275°
2026-04-16 22:14 52.35813 11.16282 37634 ft 370 kts 275°
2026-04-16 22:15 52.35881 11.12077 37789 ft 372 kts 275°
2026-04-16 22:15 52.35948 11.07840 37940 ft 374 kts 275°
2026-04-16 22:15 52.36014 11.03578 38102 ft 375 kts 275°
2026-04-16 22:15 52.36078 10.99345 38235 ft 377 kts 275°
2026-04-16 22:16 52.36200 10.90805 38252 ft 378 kts 275°
2026-04-16 22:16 52.36174 10.82169 38254 ft 380 kts 271°
2026-04-16 22:17 52.35608 10.73622 38265 ft 382 kts 265°
2026-04-16 22:17 52.34607 10.65052 38272 ft 383 kts 264°
2026-04-16 22:18 52.33585 10.56581 38271 ft 382 kts 264°
2026-04-16 22:18 52.32547 10.48058 38259 ft 382 kts 264°
2026-04-16 22:19 52.31506 10.39554 38264 ft 381 kts 264°
2026-04-16 22:19 52.30461 10.31094 38274 ft 381 kts 263°
2026-04-16 22:20 52.29585 10.24029 38257 ft 380 kts 263°
2026-04-16 22:20 52.28364 10.14245 38255 ft 379 kts 263°
2026-04-16 22:21 52.27300 10.05777 38256 ft 379 kts 263°
2026-04-16 22:21 52.26238 9.97402 38252 ft 379 kts 263°
2026-04-16 22:22 52.25251 9.88994 38262 ft 377 kts 266°
2026-04-16 22:22 52.24718 9.80578 38253 ft 374 kts 270°
2026-04-16 22:23 52.24303 9.72136 38262 ft 373 kts 270°
2026-04-16 22:23 52.23887 9.63794 38255 ft 373 kts 270°
2026-04-16 22:24 52.23460 9.55341 38257 ft 372 kts 270°
2026-04-16 22:24 52.23028 9.46936 38240 ft 372 kts 270°
2026-04-16 22:25 52.22668 9.40010 38243 ft 371 kts 270°
2026-04-16 22:25 52.22153 9.30209 38267 ft 372 kts 269°
2026-04-16 22:26 52.21703 9.21802 38254 ft 371 kts 269°
2026-04-16 22:26 52.21249 9.13417 38257 ft 371 kts 269°
2026-04-16 22:27 52.20788 9.05013 38264 ft 371 kts 269°
2026-04-16 22:27 52.20327 8.96695 38279 ft 371 kts 269°
2026-04-16 22:28 52.19857 8.88336 38252 ft 370 kts 269°
2026-04-16 22:28 52.19381 8.79995 38255 ft 370 kts 269°
2026-04-16 22:29 52.18899 8.71659 38266 ft 369 kts 269°
2026-04-16 22:29 52.18416 8.63396 38246 ft 369 kts 269°
2026-04-16 22:30 52.17923 8.55036 38248 ft 369 kts 269°
2026-04-16 22:30 52.17509 8.48116 38256 ft 369 kts 269°
2026-04-16 22:31 52.16926 8.38482 38248 ft 369 kts 269°
2026-04-16 22:31 52.16412 8.30111 38250 ft 370 kts 268°
2026-04-16 22:32 52.15899 8.21830 38258 ft 370 kts 268°
2026-04-16 22:32 52.15377 8.13509 38251 ft 369 kts 268°
2026-04-16 22:33 52.14849 8.05188 38253 ft 369 kts 268°
2026-04-16 22:33 52.14320 7.96950 38256 ft 368 kts 268°
2026-04-16 22:34 52.13781 7.88636 38261 ft 368 kts 268°
2026-04-16 22:34 52.13244 7.80427 38250 ft 368 kts 268°
2026-04-16 22:35 52.12698 7.72202 38253 ft 367 kts 268°
2026-04-16 22:35 52.12145 7.63949 38255 ft 367 kts 268°
2026-04-16 22:36 52.11587 7.55733 38256 ft 367 kts 268°
2026-04-16 22:36 52.11023 7.47473 38252 ft 367 kts 268°
2026-04-16 22:37 52.10455 7.39232 38266 ft 368 kts 267°
2026-04-16 22:37 52.09877 7.30989 38261 ft 368 kts 266°
2026-04-16 22:38 52.09296 7.22755 38255 ft 368 kts 266°
2026-04-16 22:38 52.08703 7.14451 38247 ft 368 kts 266°
2026-04-16 22:39 52.08113 7.06261 38249 ft 367 kts 266°
2026-04-16 22:39 52.07512 6.98007 38239 ft 367 kts 266°
2026-04-16 22:40 52.06906 6.89747 38234 ft 367 kts 266°
2026-04-16 22:40 52.06298 6.81534 38236 ft 367 kts 266°
2026-04-16 22:41 52.05682 6.73312 38229 ft 367 kts 266°
2026-04-16 22:41 52.05056 6.65047 38233 ft 367 kts 266°
2026-04-16 22:42 52.04432 6.56867 38230 ft 367 kts 266°
2026-04-16 22:42 52.03797 6.48626 38199 ft 365 kts 266°
2026-04-16 22:43 52.03480 6.44547 37933 ft 361 kts 266°
2026-04-16 22:43 52.03169 6.40572 37472 ft 358 kts 266°
2026-04-16 22:43 52.02855 6.36574 36932 ft 355 kts 266°
2026-04-16 22:43 52.02540 6.32588 36483 ft 351 kts 266°
2026-04-16 22:44 52.02232 6.28710 36189 ft 346 kts 266°
2026-04-16 22:44 52.01928 6.24865 35852 ft 342 kts 266°
2026-04-16 22:44 52.01625 6.21066 35496 ft 339 kts 266°
2026-04-16 22:44 52.01323 6.17286 35146 ft 336 kts 266°
2026-04-16 22:45 52.01022 6.13547 34805 ft 332 kts 266°
2026-04-16 22:45 52.00724 6.09840 34445 ft 329 kts 266°
2026-04-16 22:45 52.00430 6.06193 34043 ft 326 kts 266°
2026-04-16 22:45 52.00137 6.02574 33637 ft 323 kts 266°
2026-04-16 22:46 51.99842 5.98954 33224 ft 321 kts 266°
2026-04-16 22:46 51.99548 5.95368 32815 ft 319 kts 266°
2026-04-16 22:46 51.99255 5.91807 32401 ft 316 kts 266°
2026-04-16 22:46 51.98967 5.88312 31982 ft 315 kts 265°
2026-04-16 22:47 51.98679 5.84813 31574 ft 313 kts 265°
2026-04-16 22:47 51.98386 5.81295 31174 ft 310 kts 265°
2026-04-16 22:47 51.98099 5.77867 30761 ft 309 kts 265°
2026-04-16 22:47 51.97810 5.74421 30346 ft 306 kts 265°
2026-04-16 22:48 51.97523 5.71009 29920 ft 304 kts 265°
2026-04-16 22:48 51.97237 5.67612 29490 ft 302 kts 265°
2026-04-16 22:48 51.96952 5.64245 29059 ft 300 kts 265°
2026-04-16 22:48 51.96669 5.60907 28640 ft 298 kts 265°
2026-04-16 22:49 51.96388 5.57610 28218 ft 297 kts 265°
2026-04-16 22:49 51.96108 5.54336 27814 ft 294 kts 265°
2026-04-16 22:49 51.95834 5.51140 27414 ft 292 kts 265°
2026-04-16 22:49 51.95546 5.47803 27001 ft 290 kts 265°
2026-04-16 22:50 51.95268 5.44577 26602 ft 288 kts 265°
2026-04-16 22:50 51.94990 5.41376 26207 ft 285 kts 265°
2026-04-16 22:50 51.94714 5.38195 25802 ft 284 kts 265°
2026-04-16 22:50 51.94438 5.35040 25404 ft 282 kts 265°
2026-04-16 22:51 51.94165 5.31937 25026 ft 280 kts 264°
2026-04-16 22:51 51.93892 5.28811 24644 ft 278 kts 264°
2026-04-16 22:51 51.93612 5.25646 24256 ft 277 kts 264°
2026-04-16 22:51 51.93335 5.22510 23883 ft 275 kts 264°
2026-04-16 22:52 51.93053 5.19326 23512 ft 273 kts 264°
2026-04-16 22:52 51.92777 5.16212 23153 ft 271 kts 264°
2026-04-16 22:52 51.92500 5.13089 22804 ft 269 kts 264°
2026-04-16 22:52 51.92226 5.10030 22451 ft 267 kts 264°
2026-04-16 22:53 51.91953 5.06976 22093 ft 265 kts 264°
2026-04-16 22:53 51.91684 5.03984 21744 ft 264 kts 264°
2026-04-16 22:53 51.91414 5.00989 21387 ft 262 kts 263°
2026-04-16 22:53 51.91142 4.97983 21014 ft 262 kts 263°
2026-04-16 22:54 51.90877 4.95064 20656 ft 261 kts 263°
2026-04-16 22:54 51.90609 4.92115 20312 ft 259 kts 263°
2026-04-16 22:54 51.90345 4.89232 19966 ft 258 kts 263°
2026-04-16 22:54 51.90083 4.86376 19618 ft 256 kts 263°
2026-04-16 22:55 51.89826 4.83575 19279 ft 255 kts 263°
2026-04-16 22:55 51.89561 4.80694 18909 ft 255 kts 263°
2026-04-16 22:55 51.89313 4.78010 18566 ft 255 kts 263°
2026-04-16 22:55 51.89051 4.75185 18213 ft 254 kts 263°
2026-04-16 22:56 51.88790 4.72362 17872 ft 253 kts 262°
2026-04-16 22:56 51.88527 4.69537 17539 ft 251 kts 262°
2026-04-16 22:56 51.88267 4.66753 17210 ft 250 kts 262°
2026-04-16 22:56 51.88008 4.63984 16875 ft 249 kts 262°
2026-04-16 22:57 51.87747 4.61200 16538 ft 248 kts 262°
2026-04-16 22:57 51.87490 4.58465 16218 ft 246 kts 262°
2026-04-16 22:57 51.87230 4.55703 15890 ft 245 kts 262°
2026-04-16 22:57 51.86975 4.53000 15562 ft 243 kts 262°
2026-04-16 22:58 51.86716 4.50276 15237 ft 242 kts 261°
2026-04-16 22:58 51.86462 4.47595 14904 ft 241 kts 262°
2026-04-16 22:58 51.86207 4.44928 14574 ft 240 kts 261°
2026-04-16 22:58 51.85952 4.42261 14250 ft 239 kts 261°
2026-04-16 22:59 51.85699 4.39614 13933 ft 238 kts 261°
2026-04-16 22:59 51.85445 4.36966 13602 ft 237 kts 261°
2026-04-16 22:59 51.85201 4.34434 13272 ft 237 kts 260°
2026-04-16 22:59 51.84948 4.31803 12942 ft 237 kts 260°
2026-04-16 23:00 51.84694 4.29178 12614 ft 236 kts 260°
2026-04-16 23:00 51.84440 4.26549 12293 ft 235 kts 260°
2026-04-16 23:00 51.84187 4.23939 11994 ft 234 kts 260°
2026-04-16 23:00 51.83937 4.21374 11683 ft 233 kts 260°
2026-04-16 23:01 51.83685 4.18794 11366 ft 232 kts 260°
2026-04-16 23:01 51.83433 4.16220 11057 ft 231 kts 259°
2026-04-16 23:01 51.83183 4.13668 10741 ft 231 kts 259°
2026-04-16 23:01 51.82931 4.11109 10425 ft 230 kts 259°
2026-04-16 23:02 51.82698 4.08746 10132 ft 229 kts 259°
2026-04-16 23:02 51.82449 4.06214 9824 ft 229 kts 259°
2026-04-16 23:02 51.82197 4.03675 9504 ft 229 kts 259°
2026-04-16 23:02 51.81948 4.01159 9198 ft 228 kts 259°
2026-04-16 23:03 51.81697 3.98637 8898 ft 227 kts 259°
2026-04-16 23:03 51.81445 3.96106 8593 ft 226 kts 259°
2026-04-16 23:03 51.81198 3.93619 8303 ft 225 kts 259°
2026-04-16 23:03 51.80949 3.91139 8008 ft 224 kts 259°
2026-04-16 23:04 51.80702 3.88666 7710 ft 223 kts 259°
2026-04-16 23:04 51.80456 3.86226 7419 ft 222 kts 259°
2026-04-16 23:04 51.80210 3.83794 7121 ft 221 kts 259°
2026-04-16 23:04 51.79962 3.81335 6825 ft 220 kts 259°
2026-04-16 23:05 51.79716 3.78902 6530 ft 219 kts 259°
2026-04-16 23:05 51.79475 3.76513 6245 ft 218 kts 259°
2026-04-16 23:05 51.79229 3.74090 5957 ft 217 kts 259°
2026-04-16 23:05 51.78984 3.71700 5668 ft 216 kts 259°
2026-04-16 23:06 51.78743 3.69327 5386 ft 215 kts 259°
2026-04-16 23:06 51.78500 3.66954 5094 ft 214 kts 259°
2026-04-16 23:06 51.78258 3.64591 4814 ft 213 kts 259°
2026-04-16 23:06 51.78019 3.62261 4542 ft 212 kts 259°
2026-04-16 23:07 51.77777 3.59905 4262 ft 211 kts 259°
2026-04-16 23:07 51.77537 3.57580 3973 ft 210 kts 259°
2026-04-16 23:07 51.77298 3.55266 3698 ft 209 kts 259°
2026-04-16 23:07 51.77061 3.52978 3669 ft 207 kts 259°
2026-04-16 23:08 51.76823 3.50675 3670 ft 209 kts 259°
2026-04-16 23:08 51.76582 3.48367 3669 ft 209 kts 259°
2026-04-16 23:08 51.76342 3.46058 3680 ft 209 kts 259°
2026-04-16 23:08 51.76103 3.43767 3802 ft 210 kts 259°
2026-04-16 23:09 51.75858 3.41411 3930 ft 210 kts 259°
2026-04-16 23:09 51.75614 3.39086 4008 ft 211 kts 259°
2026-04-16 23:09 51.75373 3.36788 4012 ft 210 kts 259°
2026-04-16 23:09 51.75131 3.34482 4014 ft 210 kts 258°
2026-04-16 23:10 51.74884 3.32138 4015 ft 209 kts 258°
2026-04-16 23:10 51.74640 3.29839 4016 ft 210 kts 258°
2026-04-16 23:10 51.74392 3.27499 4018 ft 210 kts 258°
2026-04-16 23:10 51.74147 3.25189 4018 ft 210 kts 258°
2026-04-16 23:11 51.73902 3.22884 4019 ft 209 kts 258°
2026-04-16 23:11 51.73655 3.20558 4017 ft 209 kts 258°
2026-04-16 23:11 51.73410 3.18262 4016 ft 209 kts 258°
2026-04-16 23:11 51.73178 3.15934 4015 ft 210 kts 262°
2026-04-16 23:12 51.73124 3.13601 4015 ft 211 kts 268°
2026-04-16 23:12 51.73147 3.11228 4023 ft 219 kts 269°
2026-04-16 23:12 51.73172 3.08595 4029 ft 247 kts 268°
2026-04-16 23:12 51.73188 3.05672 4027 ft 278 kts 268°
2026-04-16 23:13 51.73198 3.02394 4024 ft 309 kts 268°
2026-04-16 23:13 51.73202 2.98774 4020 ft 338 kts 268°
2026-04-16 23:13 51.73204 2.94919 4013 ft 347 kts 268°
2026-04-16 23:13 51.73204 2.91011 4013 ft 348 kts 268°
2026-04-16 23:14 51.73200 2.87123 4011 ft 354 kts 268°
2026-04-16 23:14 51.73193 2.83106 4009 ft 355 kts 268°
2026-04-16 23:14 51.73184 2.79129 4011 ft 356 kts 268°
2026-04-16 23:14 51.73174 2.75167 4012 ft 356 kts 268°
2026-04-16 23:15 51.73148 2.67232 4009 ft 355 kts 268°
2026-04-16 23:15 51.73132 2.63211 4010 ft 356 kts 268°
2026-04-16 23:15 51.73115 2.59289 4011 ft 355 kts 268°
2026-04-16 23:16 51.73097 2.55296 4011 ft 355 kts 268°
2026-04-16 23:16 51.73078 2.51345 4012 ft 355 kts 268°
2026-04-16 23:16 51.73056 2.47357 4011 ft 355 kts 268°
2026-04-16 23:16 51.73033 2.43373 4011 ft 356 kts 268°
2026-04-16 23:17 51.73009 2.39406 4010 ft 356 kts 268°
2026-04-16 23:17 51.72984 2.35392 4011 ft 356 kts 268°
2026-04-16 23:17 51.72958 2.31590 4011 ft 355 kts 268°
2026-04-16 23:17 51.72929 2.27582 4011 ft 355 kts 268°
2026-04-16 23:18 51.72900 2.23601 4010 ft 355 kts 268°
2026-04-16 23:18 51.72870 2.19653 4010 ft 355 kts 268°
2026-04-16 23:18 51.72838 2.15680 4010 ft 354 kts 268°
2026-04-16 23:18 51.72804 2.11659 4010 ft 354 kts 268°
2026-04-16 23:19 51.72769 2.07685 4010 ft 354 kts 268°
2026-04-16 23:19 51.72734 2.03761 4009 ft 354 kts 268°
2026-04-16 23:19 51.72696 1.99760 4009 ft 354 kts 268°
2026-04-16 23:19 51.72658 1.95816 4008 ft 354 kts 268°
2026-04-16 23:20 51.72619 1.91880 4008 ft 354 kts 268°
2026-04-16 23:20 51.72577 1.87891 4006 ft 354 kts 268°
2026-04-16 23:20 51.72534 1.83911 4005 ft 355 kts 268°
2026-04-16 23:20 51.72490 1.79993 4005 ft 355 kts 268°
2026-04-16 23:21 51.72445 1.76020 4003 ft 354 kts 268°
2026-04-16 23:21 51.72398 1.72041 4002 ft 355 kts 268°
2026-04-16 23:21 51.72350 1.68054 4001 ft 354 kts 268°
2026-04-16 23:21 51.72301 1.64138 4000 ft 354 kts 268°
2026-04-16 23:22 51.72250 1.60176 3998 ft 354 kts 268°
2026-04-16 23:22 51.72198 1.56210 3996 ft 354 kts 268°
2026-04-16 23:22 51.72145 1.52265 3995 ft 353 kts 268°
2026-04-16 23:22 51.72090 1.48313 3995 ft 353 kts 268°
2026-04-16 23:23 51.72034 1.44346 3993 ft 353 kts 268°
2026-04-16 23:23 51.71977 1.40399 3993 ft 353 kts 268°
2026-04-16 23:23 51.71919 1.36451 3988 ft 346 kts 268°
2026-04-16 23:23 51.71865 1.32827 3987 ft 325 kts 266°
2026-04-16 23:24 51.71812 1.29323 3983 ft 303 kts 266°
2026-04-16 23:24 51.71761 1.26020 3981 ft 283 kts 266°
2026-04-16 23:24 51.71714 1.22969 3941 ft 267 kts 266°
2026-04-16 23:24 51.71664 1.20027 3810 ft 255 kts 266°
2026-04-16 23:25 51.71617 1.17241 3680 ft 247 kts 266°
2026-04-16 23:25 51.71570 1.14515 3507 ft 242 kts 266°
2026-04-16 23:25 51.71516 1.11840 3314 ft 236 kts 263°
2026-04-16 23:25 51.71141 1.09284 3185 ft 234 kts 248°
2026-04-16 23:26 51.70549 1.06882 3010 ft 228 kts 246°
2026-04-16 23:26 51.69958 1.04570 2847 ft 220 kts 246°
2026-04-16 23:26 51.69390 1.02343 2713 ft 211 kts 246°
2026-04-16 23:26 51.68845 1.00192 2579 ft 202 kts 246°
2026-04-16 23:27 51.68328 0.98142 2449 ft 196 kts 246°
2026-04-16 23:27 51.67809 0.96076 2320 ft 197 kts 246°
2026-04-16 23:27 51.67294 0.94026 2174 ft 197 kts 248°
2026-04-16 23:27 51.66806 0.91984 1990 ft 195 kts 245°
2026-04-16 23:28 51.66184 0.90019 1979 ft 193 kts 238°
2026-04-16 23:28 51.65508 0.88240 1963 ft 179 kts 236°
2026-04-16 23:28 51.64825 0.86602 1970 ft 176 kts 234°
2026-04-16 23:28 51.64119 0.85008 2036 ft 168 kts 233°
2026-04-16 23:29 51.63466 0.83565 2045 ft 152 kts 232°
2026-04-16 23:29 51.62855 0.82218 1874 ft 143 kts 233°
2026-04-16 23:29 51.62304 0.81001 1679 ft 130 kts 232°
2026-04-16 23:29 51.61774 0.79830 1513 ft 127 kts 232°
2026-04-16 23:30 51.61262 0.78695 1336 ft 124 kts 232°
2026-04-16 23:30 51.60758 0.77578 1169 ft 123 kts 232°
2026-04-16 23:30 51.60252 0.76455 1008 ft 124 kts 232°
2026-04-16 23:30 51.59751 0.75328 872 ft 122 kts 232°
2026-04-16 23:31 51.59238 0.74227 681 ft 125 kts 231°
2026-04-16 23:31 51.58727 0.73081 549 ft 123 kts 233°
2026-04-16 23:31 51.58238 0.71976 348 ft 120 kts 232°
2026-04-16 23:31 51.57734 0.70851 166 ft 125 kts 232°
2026-04-16 23:32 51.57206 0.69693 55 ft 117 kts 231°
2026-04-16 23:32 51.56849 0.68912 52 ft 42 kts 234°
2026-04-16 23:32 51.56730 0.68647 55 ft 0 kts 233°
2026-04-16 23:32 51.56706 0.68613 55 ft 12 kts 233°
2026-04-16 23:33 51.56722 0.68596 55 ft 4 kts 89°
2026-04-16 23:33 51.56759 0.68715 55 ft 17 kts 55°
2026-04-16 23:33 51.56837 0.68884 52 ft 19 kts 54°
2026-04-16 23:33 51.56885 0.69045 52 ft 10 kts 140°
2026-04-16 23:34 51.56872 0.69057 52 ft 12 kts 149°
2026-04-16 23:34 51.56877 0.69248 52 ft 22 kts 60°
2026-04-16 23:34 51.56905 0.69446 52 ft 16 kts 77°
2026-04-16 23:34 51.56911 0.69653 52 ft 21 kts 100°
2026-04-16 23:35 51.56885 0.69908 49 ft 23 kts 98°
2026-04-16 23:35 51.56883 0.70119 46 ft 16 kts 57°
2026-04-16 23:35 51.56979 0.70208 44 ft 14 kts
2026-04-16 23:35 51.57006 0.70283 43 ft 0 kts 99°